Time,TemperatureF,DewpointF,PressureIn,WindDirection,WindDirectionDegrees,WindSpeedMPH,WindSpeedGustMPH,Humidity,HourlyPrecipIn,Conditions,Clouds,dailyrainin,SoftwareType,DateUTC
2015-06-29 00:03:00,83.2,45.4,29.89,West,270,0.7,0.9,27,0.00,,,0.00,WUHU216HW,2015-06-29 07:03:00,
2015-06-29 00:08:00,82.8,45.1,29.89,NW,315,2.7,4.0,27,0.00,,,0.00,WUHU216HW,2015-06-29 07:08:00,
2015-06-29 00:13:00,82.4,43.8,29.89,NW,315,2.5,4.3,26,0.00,,,0.00,WUHU216HW,2015-06-29 07:13:00,
2015-06-29 00:18:00,82.3,43.6,29.89,NW,315,1.8,4.3,26,0.00,,,0.00,WUHU216HW,2015-06-29 07:18:00,
2015-06-29 00:23:00,82.1,43.4,29.88,NW,315,1.8,2.7,26,0.00,,,0.00,WUHU216HW,2015-06-29 07:23:00,
2015-06-29 00:28:00,81.7,42.1,29.89,NW,315,2.0,3.4,25,0.00,,,0.00,WUHU216HW,2015-06-29 07:28:00,
2015-06-29 00:33:00,81.7,42.1,29.88,NW,315,1.8,3.4,25,0.00,,,0.00,WUHU216HW,2015-06-29 07:33:00,
2015-06-29 00:38:00,81.5,40.9,29.89,NW,315,2.0,2.9,24,0.00,,,0.00,WUHU216HW,2015-06-29 07:38:00,
2015-06-29 00:43:00,81.4,39.7,29.88,NW,315,2.5,2.9,23,0.00,,,0.00,WUHU216HW,2015-06-29 07:43:00,
2015-06-29 00:48:00,81.4,39.7,29.88,NW,315,1.6,2.9,23,0.00,,,0.00,WUHU216HW,2015-06-29 07:48:00,
2015-06-29 00:53:00,81.4,39.7,29.88,NW,315,1.8,2.7,23,0.00,,,0.00,WUHU216HW,2015-06-29 07:53:00,
2015-06-29 00:58:00,81.0,39.4,29.88,NW,315,1.8,2.7,23,0.00,,,0.00,WUHU216HW,2015-06-29 07:58:00,
2015-06-29 01:03:00,80.8,39.2,29.88,NW,315,1.8,2.2,23,0.00,,,0.00,WUHU216HW,2015-06-29 08:03:00,
2015-06-29 01:08:00,80.6,39.2,29.89,WNW,293,0.0,2.2,23,0.00,,,0.00,WUHU216HW,2015-06-29 08:08:00,
2015-06-29 01:13:00,80.6,39.2,29.88,West,270,0.4,1.8,23,0.00,,,0.00,WUHU216HW,2015-06-29 08:13:00,
2015-06-29 01:18:00,80.3,38.8,29.88,WSW,248,0.9,1.8,23,0.00,,,0.00,WUHU216HW,2015-06-29 08:18:00,
2015-06-29 01:23:00,80.3,37.8,29.88,WSW,248,0.9,1.8,22,0.00,,,0.00,WUHU216HW,2015-06-29 08:23:00,
2015-06-29 01:28:00,80.1,37.6,29.88,WSW,248,0.9,1.8,22,0.00,,,0.00,WUHU216HW,2015-06-29 08:28:00,
2015-06-29 01:33:00,79.9,38.5,29.88,SSW,203,0.0,1.6,23,0.00,,,0.00,WUHU216HW,2015-06-29 08:33:00,
2015-06-29 01:38:00,79.7,38.4,29.88,South,180,1.6,1.8,23,0.00,,,0.00,WUHU216HW,2015-06-29 08:38:00,
2015-06-29 01:43:00,79.4,38.0,29.88,SSW,203,0.4,1.8,23,0.00,,,0.00,WUHU216HW,2015-06-29 08:43:00,
2015-06-29 01:48:00,79.2,37.8,29.88,SSW,203,0.4,1.6,23,0.00,,,0.00,WUHU216HW,2015-06-29 08:48:00,
2015-06-29 01:53:00,79.0,38.7,29.89,SSW,203,0.4,1.1,24,0.00,,,0.00,WUHU216HW,2015-06-29 08:53:00,
2015-06-29 01:58:00,78.8,38.5,29.88,SSW,203,0.0,1.1,24,0.00,,,0.00,WUHU216HW,2015-06-29 08:58:00,
2015-06-29 02:03:00,78.8,38.5,29.88,SSW,203,0.4,0.4,24,0.00,,,0.00,WUHU216HW,2015-06-29 09:03:00,
2015-06-29 02:08:00,78.5,38.3,29.88,SSW,203,0.7,0.7,24,0.00,,,0.00,WUHU216HW,2015-06-29 09:08:00,
2015-06-29 02:13:00,78.3,39.2,29.88,SSE,158,0.7,0.7,25,0.00,,,0.00,WUHU216HW,2015-06-29 09:13:00,
2015-06-29 02:18:00,78.1,39.1,29.89,SSE,158,0.7,1.1,25,0.00,,,0.00,WUHU216HW,2015-06-29 09:18:00,
2015-06-29 02:23:00,77.8,38.7,29.88,SSE,158,0.7,1.1,25,0.00,,,0.00,WUHU216HW,2015-06-29 09:23:00,
2015-06-29 02:28:00,77.8,38.7,29.88,SSE,158,0.0,1.1,25,0.00,,,0.00,WUHU216HW,2015-06-29 09:28:00,
2015-06-29 02:34:00,77.6,38.6,29.88,SSW,203,0.0,0.9,25,0.00,,,0.00,WUHU216HW,2015-06-29 09:34:00,
2015-06-29 02:38:00,77.4,38.4,29.87,WSW,248,1.6,1.6,25,0.00,,,0.00,WUHU216HW,2015-06-29 09:38:00,
2015-06-29 02:43:00,77.2,38.4,29.87,WSW,248,0.9,1.8,25,0.00,,,0.00,WUHU216HW,2015-06-29 09:43:00,
2015-06-29 02:48:00,76.7,38.9,29.87,SW,225,1.3,1.8,26,0.00,,,0.00,WUHU216HW,2015-06-29 09:48:00,
2015-06-29 02:53:00,76.7,38.9,29.87,South,180,0.4,1.3,26,0.00,,,0.00,WUHU216HW,2015-06-29 09:53:00,
2015-06-29 02:58:00,76.5,38.7,29.87,SSE,158,0.4,1.3,26,0.00,,,0.00,WUHU216HW,2015-06-29 09:58:00,
2015-06-29 03:03:00,76.5,38.7,29.87,South,180,1.1,1.3,26,0.00,,,0.00,WUHU216HW,2015-06-29 10:03:00,
2015-06-29 03:08:00,76.5,38.7,29.87,South,180,1.1,1.6,26,0.00,,,0.00,WUHU216HW,2015-06-29 10:08:00,
2015-06-29 03:13:00,76.5,38.7,29.88,South,180,0.7,1.6,26,0.00,,,0.00,WUHU216HW,2015-06-29 10:13:00,
2015-06-29 03:18:00,76.5,38.7,29.87,South,180,0.0,1.6,26,0.00,,,0.00,WUHU216HW,2015-06-29 10:18:00,
2015-06-29 03:23:00,76.3,38.6,29.87,SSE,158,0.4,1.6,26,0.00,,,0.00,WUHU216HW,2015-06-29 10:23:00,
2015-06-29 03:28:00,76.3,38.6,29.87,South,180,0.7,1.6,26,0.00,,,0.00,WUHU216HW,2015-06-29 10:28:00,
2015-06-29 03:33:00,76.3,38.6,29.87,SSE,158,0.0,0.9,26,0.00,,,0.00,WUHU216HW,2015-06-29 10:33:00,
2015-06-29 03:38:00,76.3,38.6,29.87,SE,135,0.4,0.9,26,0.00,,,0.00,WUHU216HW,2015-06-29 10:38:00,
2015-06-29 03:43:00,76.3,37.5,29.87,SE,135,0.0,0.4,25,0.00,,,0.00,WUHU216HW,2015-06-29 10:43:00,
2015-06-29 03:48:00,76.1,37.4,29.87,SSE,158,1.1,1.1,25,0.00,,,0.00,WUHU216HW,2015-06-29 10:48:00,
2015-06-29 03:53:00,76.1,37.4,29.87,South,180,0.9,1.6,25,0.00,,,0.00,WUHU216HW,2015-06-29 10:53:00,
2015-06-29 03:58:00,76.1,37.4,29.87,South,180,0.0,1.6,25,0.00,,,0.00,WUHU216HW,2015-06-29 10:58:00,
2015-06-29 04:03:00,76.0,37.3,29.87,NW,315,0.0,1.1,25,0.00,,,0.00,WUHU216HW,2015-06-29 11:03:00,
2015-06-29 04:08:00,75.8,37.1,29.87,WSW,248,0.0,1.1,25,0.00,,,0.00,WUHU216HW,2015-06-29 11:08:00,
2015-06-29 04:13:00,75.6,38.0,29.88,WSW,248,0.0,0.4,26,0.00,,,0.00,WUHU216HW,2015-06-29 11:13:00,
2015-06-29 04:18:00,75.4,37.8,29.87,SW,225,0.0,0.4,26,0.00,,,0.00,WUHU216HW,2015-06-29 11:18:00,
2015-06-29 04:23:00,75.2,37.6,29.87,SE,135,0.2,0.7,26,0.00,,,0.00,WUHU216HW,2015-06-29 11:23:00,
2015-06-29 04:28:00,75.2,37.6,29.87,SE,135,0.0,0.7,26,0.00,,,0.00,WUHU216HW,2015-06-29 11:28:00,
2015-06-29 04:33:00,75.1,38.5,29.87,SW,225,0.4,0.4,27,0.00,,,0.00,WUHU216HW,2015-06-29 11:33:00,
2015-06-29 04:38:00,74.9,37.4,29.87,WSW,248,0.0,0.9,26,0.00,,,0.00,WUHU216HW,2015-06-29 11:38:00,
2015-06-29 04:43:00,74.7,37.2,29.87,SW,225,0.2,0.9,26,0.00,,,0.00,WUHU216HW,2015-06-29 11:43:00,
2015-06-29 04:48:00,74.5,38.1,29.87,South,180,0.0,1.1,27,0.00,,,0.00,WUHU216HW,2015-06-29 11:48:00,
2015-06-29 04:53:00,74.5,37.1,29.87,South,180,0.0,1.1,26,0.00,,,0.00,WUHU216HW,2015-06-29 11:53:00,
2015-06-29 04:58:00,74.3,38.9,29.88,South,180,0.0,0.4,28,0.00,,,0.00,WUHU216HW,2015-06-29 11:58:00,
2015-06-29 05:03:00,74.3,38.9,29.88,South,180,0.0,0.9,28,0.00,,,0.00,WUHU216HW,2015-06-29 12:03:00,
2015-06-29 05:08:00,74.2,38.8,29.88,ESE,113,0.4,0.9,28,0.00,,,0.00,WUHU216HW,2015-06-29 12:08:00,
2015-06-29 05:13:00,74.2,38.8,29.88,SE,135,0.9,1.1,28,0.00,,,0.00,WUHU216HW,2015-06-29 12:13:00,
2015-06-29 05:18:00,74.0,39.6,29.88,ESE,113,0.7,1.1,29,0.00,,,0.00,WUHU216HW,2015-06-29 12:18:00,
2015-06-29 05:23:00,73.8,39.4,29.88,ESE,113,0.2,1.6,29,0.00,,,0.00,WUHU216HW,2015-06-29 12:23:00,
2015-06-29 05:28:00,73.8,39.4,29.88,SSE,158,0.0,1.6,29,0.00,,,0.00,WUHU216HW,2015-06-29 12:28:00,
2015-06-29 05:33:00,73.8,39.4,29.88,SSE,158,0.4,1.1,29,0.00,,,0.00,WUHU216HW,2015-06-29 12:33:00,
2015-06-29 05:38:00,73.6,40.3,29.89,SSE,158,0.0,0.9,30,0.00,,,0.00,WUHU216HW,2015-06-29 12:38:00,
2015-06-29 05:43:00,73.6,40.3,29.89,SSE,158,1.1,1.1,30,0.00,,,0.00,WUHU216HW,2015-06-29 12:43:00,
2015-06-29 05:48:00,73.6,40.3,29.89,South,180,0.9,1.8,30,0.00,,,0.00,WUHU216HW,2015-06-29 12:48:00,
2015-06-29 05:53:00,73.6,41.0,29.89,South,180,1.6,1.8,31,0.00,,,0.00,WUHU216HW,2015-06-29 12:53:00,
2015-06-29 05:58:00,73.8,40.5,29.89,SSE,158,1.3,2.5,30,0.00,,,0.00,WUHU216HW,2015-06-29 12:58:00,
2015-06-29 06:03:00,73.8,40.5,29.90,South,180,2.5,2.5,30,0.00,,,0.00,WUHU216HW,2015-06-29 13:03:00,
2015-06-29 06:08:00,73.8,41.2,29.90,ESE,113,0.7,3.6,31,0.00,,,0.00,WUHU216HW,2015-06-29 13:08:00,
2015-06-29 06:13:00,73.8,41.2,29.90,ESE,113,1.1,3.6,31,0.00,,,0.00,WUHU216HW,2015-06-29 13:13:00,
2015-06-29 06:18:00,73.8,41.2,29.90,SSE,158,0.7,1.6,31,0.00,,,0.00,WUHU216HW,2015-06-29 13:18:00,
2015-06-29 06:23:00,74.0,41.4,29.90,SSE,158,0.0,1.6,31,0.00,,,0.00,WUHU216HW,2015-06-29 13:23:00,
2015-06-29 06:28:00,73.8,41.9,29.91,SSE,158,0.2,1.1,32,0.00,,,0.00,WUHU216HW,2015-06-29 13:28:00,
2015-06-29 06:33:00,74.0,42.1,29.91,South,180,0.4,1.1,32,0.00,,,0.00,WUHU216HW,2015-06-29 13:33:00,
2015-06-29 06:38:00,74.2,42.3,29.91,SSE,158,0.0,1.1,32,0.00,,,0.00,WUHU216HW,2015-06-29 13:38:00,
2015-06-29 06:43:00,74.3,42.5,29.91,SSE,158,0.0,0.2,32,0.00,,,0.00,WUHU216HW,2015-06-29 13:43:00,
2015-06-29 06:48:00,74.5,42.7,29.90,ENE,68,0.0,1.1,32,0.00,,,0.00,WUHU216HW,2015-06-29 13:48:00,
2015-06-29 06:53:00,74.7,42.8,29.91,SSE,158,0.7,1.1,32,0.00,,,0.00,WUHU216HW,2015-06-29 13:53:00,
2015-06-29 06:58:00,74.9,42.9,29.91,South,180,0.0,1.3,32,0.00,,,0.00,WUHU216HW,2015-06-29 13:58:00,
2015-06-29 07:03:00,75.1,43.1,29.90,SSW,203,0.0,1.3,32,0.00,,,0.00,WUHU216HW,2015-06-29 14:03:00,
2015-06-29 07:08:00,75.2,43.3,29.91,South,180,0.4,0.4,32,0.00,,,0.00,WUHU216HW,2015-06-29 14:08:00,
2015-06-29 07:13:00,75.4,43.5,29.91,SSE,158,0.9,1.1,32,0.00,,,0.00,WUHU216HW,2015-06-29 14:13:00,
2015-06-29 07:18:00,75.4,43.5,29.91,SE,135,0.0,1.1,32,0.00,,,0.00,WUHU216HW,2015-06-29 14:18:00,
2015-06-29 07:23:00,75.6,44.4,29.91,SE,135,0.0,1.1,33,0.00,,,0.00,WUHU216HW,2015-06-29 14:23:00,
2015-06-29 07:28:00,75.8,44.6,29.91,SE,135,0.0,0.4,33,0.00,,,0.00,WUHU216HW,2015-06-29 14:28:00,
2015-06-29 07:33:00,76.0,45.5,29.91,SE,135,0.4,1.1,34,0.00,,,0.00,WUHU216HW,2015-06-29 14:33:00,
2015-06-29 07:38:00,76.1,44.8,29.92,SE,135,1.3,1.3,33,0.00,,,0.00,WUHU216HW,2015-06-29 14:38:00,
2015-06-29 07:43:00,76.5,45.9,29.92,South,180,0.0,1.8,34,0.00,,,0.00,WUHU216HW,2015-06-29 14:43:00,
2015-06-29 07:48:00,77.0,46.5,29.91,South,180,0.7,1.8,34,0.00,,,0.00,WUHU216HW,2015-06-29 14:48:00,
2015-06-29 07:53:00,77.8,47.0,29.92,SSE,158,0.0,1.6,34,0.00,,,0.00,WUHU216HW,2015-06-29 14:53:00,
2015-06-29 07:58:00,78.7,47.8,29.92,SSE,158,0.2,1.6,34,0.00,,,0.00,WUHU216HW,2015-06-29 14:58:00,
2015-06-29 08:03:00,79.6,48.6,29.92,West,270,1.1,1.1,34,0.00,,,0.00,WUHU216HW,2015-06-29 15:03:00,
2015-06-29 08:08:00,80.3,49.2,29.92,NNW,338,2.2,2.5,34,0.00,,,0.00,WUHU216HW,2015-06-29 15:08:00,
2015-06-29 08:13:00,81.2,50.0,29.92,NNW,338,2.5,2.5,34,0.00,,,0.00,WUHU216HW,2015-06-29 15:13:00,
2015-06-29 08:18:00,82.1,50.8,29.92,NNW,338,4.0,4.0,34,0.00,,,0.00,WUHU216HW,2015-06-29 15:18:00,
2015-06-29 08:23:00,83.0,51.6,29.91,NW,315,3.8,4.7,34,0.00,,,0.00,WUHU216HW,2015-06-29 15:23:00,
2015-06-29 08:28:00,83.7,51.4,29.91,NW,315,2.0,4.7,33,0.00,,,0.00,WUHU216HW,2015-06-29 15:28:00,
2015-06-29 08:33:00,84.6,52.2,29.92,North,0,0.9,4.5,33,0.00,,,0.00,WUHU216HW,2015-06-29 15:33:00,
2015-06-29 08:38:00,85.0,51.8,29.92,North,0,1.8,4.0,32,0.00,,,0.00,WUHU216HW,2015-06-29 15:38:00,
2015-06-29 08:43:00,85.7,52.4,29.92,NW,315,1.1,4.0,32,0.00,,,0.00,WUHU216HW,2015-06-29 15:43:00,
2015-06-29 08:48:00,86.2,52.8,29.92,NNW,338,2.5,4.0,32,0.00,,,0.00,WUHU216HW,2015-06-29 15:48:00,
2015-06-29 08:53:00,86.8,53.3,29.92,NW,315,1.1,4.0,32,0.00,,,0.00,WUHU216HW,2015-06-29 15:53:00,
2015-06-29 08:58:00,87.1,52.8,29.92,NNW,338,2.5,3.4,31,0.00,,,0.00,WUHU216HW,2015-06-29 15:58:00,
2015-06-29 09:03:00,87.8,53.4,29.92,NNW,338,0.7,3.4,31,0.00,,,0.00,WUHU216HW,2015-06-29 16:03:00,
2015-06-29 09:08:00,88.6,53.2,29.92,NW,315,3.4,3.4,30,0.00,,,0.00,WUHU216HW,2015-06-29 16:08:00,
2015-06-29 09:13:00,88.7,53.4,29.92,NW,315,0.0,3.4,30,0.00,,,0.00,WUHU216HW,2015-06-29 16:13:00,
2015-06-29 09:18:00,89.1,53.7,29.92,NW,315,1.1,3.4,30,0.00,,,0.00,WUHU216HW,2015-06-29 16:18:00,
2015-06-29 09:23:00,89.3,52.7,29.92,NE,45,1.3,2.9,29,0.00,,,0.00,WUHU216HW,2015-06-29 16:23:00,
2015-06-29 09:28:00,89.6,53.1,29.92,NNE,23,0.2,1.8,29,0.00,,,0.00,WUHU216HW,2015-06-29 16:28:00,
2015-06-29 09:33:00,89.6,53.1,29.92,SW,225,0.4,2.2,29,0.00,,,0.00,WUHU216HW,2015-06-29 16:33:00,
2015-06-29 09:38:00,90.2,53.6,29.92,NE,45,1.8,2.7,29,0.00,,,0.00,WUHU216HW,2015-06-29 16:38:00,
2015-06-29 09:43:00,90.9,54.2,29.92,ENE,68,0.9,3.1,29,0.00,,,0.00,WUHU216HW,2015-06-29 16:43:00,
2015-06-29 09:48:00,91.6,54.8,29.92,NW,315,2.0,3.1,29,0.00,,,0.00,WUHU216HW,2015-06-29 16:48:00,
2015-06-29 09:53:00,92.3,53.2,29.92,NE,45,2.0,2.9,27,0.00,,,0.00,WUHU216HW,2015-06-29 16:53:00,
2015-06-29 09:58:00,92.9,54.7,29.92,North,0,2.7,4.7,28,0.00,,,0.00,WUHU216HW,2015-06-29 16:58:00,
2015-06-29 10:03:00,93.2,52.8,29.92,ESE,113,1.6,4.7,26,0.00,,,0.00,WUHU216HW,2015-06-29 17:03:00,
2015-06-29 10:08:00,93.8,52.2,29.91,NNE,23,2.7,4.7,25,0.00,,,0.00,WUHU216HW,2015-06-29 17:08:00,
2015-06-29 10:13:00,94.3,52.7,29.91,North,0,2.0,4.7,25,0.00,,,0.00,WUHU216HW,2015-06-29 17:13:00,
2015-06-29 10:18:00,94.7,51.8,29.91,NE,45,4.0,6.0,24,0.00,,,0.00,WUHU216HW,2015-06-29 17:18:00,
2015-06-29 10:23:00,95.2,52.3,29.91,NNW,338,2.5,6.0,24,0.00,,,0.00,WUHU216HW,2015-06-29 17:23:00,
2015-06-29 10:28:00,96.1,53.1,29.91,NW,315,3.4,4.0,24,0.00,,,0.00,WUHU216HW,2015-06-29 17:28:00,
2015-06-29 10:33:00,96.8,52.7,29.91,ENE,68,0.9,4.9,23,0.00,,,0.00,WUHU216HW,2015-06-29 17:33:00,
2015-06-29 10:38:00,97.2,52.9,29.91,North,0,0.7,4.9,23,0.00,,,0.00,WUHU216HW,2015-06-29 17:38:00,
2015-06-29 10:43:00,97.6,52.1,29.91,ENE,68,4.0,4.0,22,0.00,,,0.00,WUHU216HW,2015-06-29 17:43:00,
2015-06-29 10:48:00,97.4,51.9,29.91,ENE,68,4.3,4.9,22,0.00,,,0.00,WUHU216HW,2015-06-29 17:48:00,
2015-06-29 10:53:00,97.0,52.7,29.91,North,0,0.4,4.9,23,0.00,,,0.00,WUHU216HW,2015-06-29 17:53:00,
2015-06-29 10:58:00,97.6,53.2,29.91,WSW,248,1.1,4.3,23,0.00,,,0.00,WUHU216HW,2015-06-29 17:58:00,
2015-06-29 11:03:00,98.1,52.6,29.90,ENE,68,3.1,6.0,22,0.00,,,0.00,WUHU216HW,2015-06-29 18:03:00,
2015-06-29 11:08:00,97.6,52.1,29.90,ESE,113,1.1,6.0,22,0.00,,,0.00,WUHU216HW,2015-06-29 18:08:00,
2015-06-29 11:13:00,98.1,52.6,29.90,SW,225,0.2,5.4,22,0.00,,,0.00,WUHU216HW,2015-06-29 18:13:00,
2015-06-29 11:18:00,99.0,53.3,29.90,ENE,68,2.9,4.3,22,0.00,,,0.00,WUHU216HW,2015-06-29 18:18:00,
2015-06-29 11:23:00,99.0,51.0,29.91,East,90,1.1,5.8,20,0.00,,,0.00,WUHU216HW,2015-06-29 18:23:00,
2015-06-29 11:28:00,99.0,53.3,29.91,NE,45,1.8,5.8,22,0.00,,,0.00,WUHU216HW,2015-06-29 18:28:00,
2015-06-29 11:33:00,99.5,51.5,29.91,NNE,23,1.8,2.9,20,0.00,,,0.00,WUHU216HW,2015-06-29 18:33:00,
2015-06-29 11:38:00,99.7,51.7,29.90,NNW,338,2.5,3.4,20,0.00,,,0.00,WUHU216HW,2015-06-29 18:38:00,
2015-06-29 11:43:00,100.4,50.4,29.90,ENE,68,2.5,4.7,19,0.00,,,0.00,WUHU216HW,2015-06-29 18:43:00,
2015-06-29 11:48:00,100.3,50.2,29.90,ESE,113,2.7,7.2,19,0.00,,,0.00,WUHU216HW,2015-06-29 18:48:00,
2015-06-29 11:53:00,100.3,50.2,29.90,ENE,68,3.8,7.2,19,0.00,,,0.00,WUHU216HW,2015-06-29 18:53:00,
2015-06-29 11:58:00,100.8,52.5,29.90,NE,45,3.4,6.0,20,0.00,,,0.00,WUHU216HW,2015-06-29 18:58:00,
2015-06-29 12:03:00,101.9,51.6,29.90,South,180,1.6,4.5,19,0.00,,,0.00,WUHU216HW,2015-06-29 19:03:00,
2015-06-29 12:08:00,102.6,52.1,29.90,South,180,3.4,6.0,19,0.00,,,0.00,WUHU216HW,2015-06-29 19:08:00,
2015-06-29 12:13:00,102.8,52.3,29.89,SSW,203,2.0,6.0,19,0.00,,,0.00,WUHU216HW,2015-06-29 19:13:00,
2015-06-29 12:18:00,102.4,50.1,29.89,SSE,158,0.0,4.7,18,0.00,,,0.00,WUHU216HW,2015-06-29 19:18:00,
2015-06-29 12:23:00,102.1,51.7,29.89,NW,315,1.1,4.7,19,0.00,,,0.00,WUHU216HW,2015-06-29 19:23:00,
2015-06-29 12:28:00,102.1,51.7,29.89,SE,135,1.8,3.4,19,0.00,,,0.00,WUHU216HW,2015-06-29 19:28:00,
2015-06-29 12:33:00,101.7,49.6,29.89,ESE,113,2.0,6.3,18,0.00,,,0.00,WUHU216HW,2015-06-29 19:33:00,
2015-06-29 12:38:00,101.5,51.2,29.89,East,90,1.8,6.3,19,0.00,,,0.00,WUHU216HW,2015-06-29 19:38:00,
2015-06-29 12:43:00,101.3,51.1,29.89,South,180,0.4,5.6,19,0.00,,,0.00,WUHU216HW,2015-06-29 19:43:00,
2015-06-29 12:48:00,101.2,49.1,29.89,ENE,68,3.4,4.7,18,0.00,,,0.00,WUHU216HW,2015-06-29 19:48:00,
2015-06-29 12:53:00,101.0,50.9,29.89,ESE,113,2.5,4.7,19,0.00,,,0.00,WUHU216HW,2015-06-29 19:53:00,
2015-06-29 12:58:00,101.2,50.9,29.89,SE,135,2.5,4.7,19,0.00,,,0.00,WUHU216HW,2015-06-29 19:58:00,
2015-06-29 13:03:00,101.2,50.9,29.89,SSW,203,4.0,5.8,19,0.00,,,0.00,WUHU216HW,2015-06-29 20:03:00,
2015-06-29 13:08:00,100.8,50.7,29.89,WSW,248,5.1,5.8,19,0.00,,,0.00,WUHU216HW,2015-06-29 20:08:00,
2015-06-29 13:13:00,100.8,50.7,29.88,WNW,293,0.4,5.4,19,0.00,,,0.00,WUHU216HW,2015-06-29 20:13:00,
2015-06-29 13:18:00,101.0,50.9,29.88,SSE,158,2.5,5.4,19,0.00,,,0.00,WUHU216HW,2015-06-29 20:18:00,
2015-06-29 13:23:00,100.6,48.8,29.88,ESE,113,2.5,8.3,18,0.00,,,0.00,WUHU216HW,2015-06-29 20:23:00,
2015-06-29 13:28:00,100.6,50.6,29.88,SSW,203,1.1,8.3,19,0.00,,,0.00,WUHU216HW,2015-06-29 20:28:00,
2015-06-29 13:33:00,100.8,50.7,29.88,SE,135,1.1,3.4,19,0.00,,,0.00,WUHU216HW,2015-06-29 20:33:00,
2015-06-29 13:38:00,100.8,50.7,29.88,SE,135,4.9,6.5,19,0.00,,,0.00,WUHU216HW,2015-06-29 20:38:00,
2015-06-29 13:43:00,100.8,50.7,29.88,SSW,203,3.1,6.5,19,0.00,,,0.00,WUHU216HW,2015-06-29 20:43:00,
2015-06-29 13:48:00,101.2,50.9,29.88,SSE,158,3.1,5.1,19,0.00,,,0.00,WUHU216HW,2015-06-29 20:48:00,
2015-06-29 13:53:00,101.2,50.9,29.88,SSE,158,6.9,8.5,19,0.00,,,0.00,WUHU216HW,2015-06-29 20:53:00,
2015-06-29 13:58:00,101.2,50.9,29.88,SSE,158,5.4,8.5,19,0.00,,,0.00,WUHU216HW,2015-06-29 20:58:00,
2015-06-29 14:03:00,101.5,51.2,29.88,South,180,6.9,7.2,19,0.00,,,0.00,WUHU216HW,2015-06-29 21:03:00,
2015-06-29 14:08:00,101.9,51.6,29.88,South,180,3.4,9.2,19,0.00,,,0.00,WUHU216HW,2015-06-29 21:08:00,
2015-06-29 14:13:00,101.7,51.4,29.88,SSW,203,6.9,9.2,19,0.00,,,0.00,WUHU216HW,2015-06-29 21:13:00,
2015-06-29 14:18:00,101.3,51.1,29.88,SSE,158,4.7,8.5,19,0.00,,,0.00,WUHU216HW,2015-06-29 21:18:00,
2015-06-29 14:23:00,101.2,50.9,29.88,SSE,158,6.0,8.5,19,0.00,,,0.00,WUHU216HW,2015-06-29 21:23:00,
2015-06-29 14:28:00,100.6,50.6,29.88,SW,225,6.9,9.8,19,0.00,,,0.00,WUHU216HW,2015-06-29 21:28:00,
2015-06-29 14:33:00,100.1,51.9,29.88,East,90,3.8,10.5,20,0.00,,,0.00,WUHU216HW,2015-06-29 21:33:00,
2015-06-29 14:38:00,99.4,53.6,29.88,SSE,158,9.4,11.4,22,0.00,,,0.00,WUHU216HW,2015-06-29 21:38:00,
2015-06-29 14:43:00,98.8,53.1,29.87,South,180,3.8,11.4,22,0.00,,,0.00,WUHU216HW,2015-06-29 21:43:00,
2015-06-29 14:48:00,98.6,53.0,29.87,SSE,158,4.0,11.2,22,0.00,,,0.00,WUHU216HW,2015-06-29 21:48:00,
2015-06-29 14:53:00,98.6,53.0,29.87,SSE,158,1.1,9.2,22,0.00,,,0.00,WUHU216HW,2015-06-29 21:53:00,
2015-06-29 14:58:00,99.0,53.3,29.87,SSE,158,4.5,9.2,22,0.00,,,0.00,WUHU216HW,2015-06-29 21:58:00,
2015-06-29 15:03:00,99.4,53.6,29.87,SSW,203,5.6,9.2,22,0.00,,,0.00,WUHU216HW,2015-06-29 22:03:00,
2015-06-29 15:08:00,99.4,51.3,29.86,East,90,3.1,9.2,20,0.00,,,0.00,WUHU216HW,2015-06-29 22:08:00,
2015-06-29 15:13:00,99.4,52.5,29.86,SSW,203,1.8,8.9,21,0.00,,,0.00,WUHU216HW,2015-06-29 22:13:00,
2015-06-29 15:18:00,99.4,53.6,29.86,SE,135,1.8,8.9,22,0.00,,,0.00,WUHU216HW,2015-06-29 22:18:00,
2015-06-29 15:23:00,99.4,51.3,29.86,South,180,1.8,5.1,20,0.00,,,0.00,WUHU216HW,2015-06-29 22:23:00,
2015-06-29 15:28:00,99.5,52.6,29.85,SSW,203,2.7,5.4,21,0.00,,,0.00,WUHU216HW,2015-06-29 22:28:00,
2015-06-29 15:33:00,99.9,51.8,29.85,SW,225,3.4,5.4,20,0.00,,,0.00,WUHU216HW,2015-06-29 22:33:00,
2015-06-29 15:38:00,100.1,51.9,29.85,South,180,2.5,5.4,20,0.00,,,0.00,WUHU216HW,2015-06-29 22:38:00,
2015-06-29 15:43:00,100.3,52.0,29.85,SW,225,4.3,7.6,20,0.00,,,0.00,WUHU216HW,2015-06-29 22:43:00,
2015-06-29 15:48:00,100.4,52.2,29.85,SSE,158,0.9,7.6,20,0.00,,,0.00,WUHU216HW,2015-06-29 22:48:00,
2015-06-29 15:53:00,100.6,52.4,29.85,WSW,248,6.9,9.8,20,0.00,,,0.00,WUHU216HW,2015-06-29 22:53:00,
2015-06-29 15:58:00,100.8,50.7,29.84,SW,225,5.4,10.7,19,0.00,,,0.00,WUHU216HW,2015-06-29 22:58:00,
2015-06-29 16:03:00,101.3,51.1,29.84,WSW,248,0.9,10.7,19,0.00,,,0.00,WUHU216HW,2015-06-29 23:03:00,
2015-06-29 16:08:00,101.5,53.1,29.84,NW,315,4.0,6.3,20,0.00,,,0.00,WUHU216HW,2015-06-29 23:08:00,
2015-06-29 16:13:00,101.9,51.6,29.84,NW,315,4.7,7.6,19,0.00,,,0.00,WUHU216HW,2015-06-29 23:13:00,
2015-06-29 16:18:00,101.9,51.6,29.84,NW,315,3.6,7.8,19,0.00,,,0.00,WUHU216HW,2015-06-29 23:18:00,
2015-06-29 16:23:00,101.9,51.6,29.84,West,270,4.9,7.8,19,0.00,,,0.00,WUHU216HW,2015-06-29 23:23:00,
2015-06-29 16:28:00,101.7,51.4,29.84,West,270,6.9,10.5,19,0.00,,,0.00,WUHU216HW,2015-06-29 23:28:00,
2015-06-29 16:33:00,101.5,51.2,29.84,West,270,7.2,12.5,19,0.00,,,0.00,WUHU216HW,2015-06-29 23:33:00,
2015-06-29 16:38:00,100.8,50.7,29.84,WSW,248,12.8,12.8,19,0.00,,,0.00,WUHU216HW,2015-06-29 23:38:00,
2015-06-29 16:43:00,100.6,52.4,29.83,West,270,9.2,13.4,20,0.00,,,0.00,WUHU216HW,2015-06-29 23:43:00,
2015-06-29 16:48:00,100.8,52.5,29.84,West,270,10.5,13.9,20,0.00,,,0.00,WUHU216HW,2015-06-29 23:48:00,
2015-06-29 16:53:00,101.0,50.9,29.83,NNW,338,13.6,17.4,19,0.00,,,0.00,WUHU216HW,2015-06-29 23:53:00,
2015-06-29 16:58:00,100.8,52.5,29.83,West,270,16.6,20.4,20,0.00,,,0.00,WUHU216HW,2015-06-29 23:58:00,
2015-06-29 17:03:00,100.6,52.4,29.83,West,270,12.1,20.4,20,0.00,,,0.00,WUHU216HW,2015-06-30 00:03:00,
2015-06-29 17:08:00,100.4,52.2,29.83,West,270,12.1,16.6,20,0.00,,,0.00,WUHU216HW,2015-06-30 00:08:00,